Location: Caseificio
(44.7500°N, 11.0500°E)
Time: 23:13:56
(UTC+00:00)

Meteor 1-24 Rocket - Pass Details

Date: 09 October 2022
Orbit: 791 x 926 km, 81.3° (Epoch: 08 December)

Event Time Altitude Azimuth Distance (km) Brightness Sun altitude
Rises 18:15:59 0° 346° (NNW) 3,306 7.1 -17.5°
Reaches altitude 10° 18:18:22 10° 343° (NNW) 2,379 6.4 -17.9°
Maximum altitude 18:23:38 63° 264° (W) 906 4.1 -18.8°
Drops below altitude 10° 18:29:01 10° 184° (S) 2,424 6.0 -19.8°
Sets 18:31:28 0° 181° (S) 3,373 6.7 -20.2°
